Tracking 30995 objects as of 5-Jul-2025
HD Live streaming from Space Station
objects crossing your sky now

STARLINK-2257

Track STARLINK-2257 now!
10-day predictions
STARLINK-2257 is classified as:


NORAD ID: 47787
Int'l Code: 2021-018A
Perigee: 553.6 km
Apogee: 555.1 km
Inclination: 53.1 °
Period: 95.6 minutes
Semi major axis: 6925 km
RCS: Unknown
Launch date: March 11, 2021
Source: United States (US)
Launch site: AIR FORCE EASTERN TEST RANGE (AFETR)
Your satellite tracking list
Your tracking list is empty




NASA's NSSDC Master Catalog

Two Line Element Set (TLE):
1 47787U 21018A   25186.49222873 -.00000606  00000-0 -21824-4 0  9999
2 47787  53.0557 281.3356 0001113  90.8971 269.2146 15.06393636239330
Source of the keplerian elements: AFSPC